Weather in Pochayevo

Russia / Belgorod Oblast     50°38′43″N   35°32′49″E
temp.,
°C
wind,
m/s
gust,
m/s
humid.,
%
clouds,
%
prec.,
mm/h
press.,
hPa
HPBL,
m
28 july, wed
wed2800:00+21sse344221 0.0 101957
03:00+19sse354538 0.0 101870
06:00+19sse365065 0.0 101798
09:00+26s463782 0.0 1016411
12:00+30ssw5628100 0.0 10152070
15:00+32ssw5829100 0.0 10123042
18:00+22ne457013 1.1 101271
21:00+19e34854 2.1 101260
29 july, thu
thu2900:00+19sw33933 0.5 101253
03:00+19w34935 0.5 101262
06:00+19sw22885 0.0 101224
09:00+25w226755 0.0 1012438
12:00+30wsw353833 0.0 10112562
15:00+32wnw453073 0.0 10092972
18:00+29w233649 0.0 1008104
21:00+25ssw224434 0.0 100813
30 july, fri
fri3000:00+24wsw410617 0.0 1009279
03:00+20wsw398440 0.0 1008180
06:00+20ssw258419 0.1 1008158
09:00+23wsw338166 2.5 1008491
12:00+28w4454100 0.0 10081269
15:00+30nw6545100 0.0 10072004
18:00+27nnw775218 0.0 10081098
21:00+22nne227156 0.0 100927
31 july, sat
sat3100:00+21nnw117765 0.0 101011
03:00+20nnw11780 0.0 101011
06:00+19nnw22775 0.0 101115
09:00+26wsw12455 0.0 1011475
12:00+30w34322 0.0 10112417
15:00+31wnw44285 0.0 10102625
18:00+30nw33290 0.0 10102109
21:00+24nne11421 0.0 101011
1 august, sun
sun100:00+21se33520 0.0 101137
03:00+21sse34550 0.0 101050
06:00+20s35570 0.0 101089
09:00+28ssw57376 0.0 1010613
12:00+32sw6730100 0.0 10092335
15:00+33wsw663198 0.0 10092646
18:00+32w563522 0.0 10082318
21:00+25nnw356035 0.2 100986